Showing default

WARATAH SEED-1, 60469

Orbit data source: Space-Track

WARATAH SEED-1, 60469 is a payload satellite owned by U Sydney (AU) in SSO that was launched on Fri, 16 Aug 2024 UTC via an FALCON 9 launch vehicle from the Air Force Western Test Range (AFWTR). Payload-class satellites include a variety of spacecraft equipped with specific instruments for various scientific and technological missions. These include communications satellites like Starlink; space stations such as the ISS; scientific satellites like the Hubble; Earth observation satellites from companies like Planet Labs, Umbra, and HawkEye 360; GPS; miniature CubeSats for education and research; and military/defense satellites.

Loading next visibility...
Identifier
60469, 2024-149B
Orbit
SSO
Country
Flag of AUAU / AUS
Related business
Manufacturer
U Sydney
Mission
Operational Amateur Technology
Bus & Motor
CUBESAT 6U, Unknown motor
Mass
10 kg wet, 10 kg dry
Launch date (UTC)
2024-08-16 (2 years ago)
Launch vehicle
FALCON 9
Launch site
Air Force Western Test Range (AFWTR)
Object type
Payload
Rocket body
Debris
Shape & HBR
Box, 0.1 m
Radar Cross Section
0.080 m², Medium (>0.1 m² and < 1m²)

Expand to show TLE details & history
Last TLE update: 9 hours ago

TLE from 9 hours ago
0 WARATAH SEED-1
1 60469U 24149B   26073.17908759  .00016201  00000-0  50311-3 0  9992
2 60469  97.3735 153.8267 0002248 165.8028 194.3278 15.33443384 87545
Epoch: 2026-03-14T04:17Z
TLE epoch observation values (Epoch: 2026-03-14T04:17:53.167Z)
Latitude
-0.00005°
Longitude
-82.44881°
Altitude
470.148 km
Speed
7.63 km/s
True Right ascension
10h 15m 18s
True Declination
0° 00' 00"
Sunlit
Object was in full shadow at epoch
Visualization orbit readout
Latitude
Unknown
Longitude
Unknown
Altitude
Unknown
Speed
Unknown
Apparent Right ascension
Unknown
Apparent Declination
Unknown
Sunlit
N/A
Visualization observer readout
Local Sidereal Time
18:12:17
Azimuth
Unknown
Elevation
Unknown
Doppler factor
Unknown
Orbital elements
Apogee altitude
464.032 km
Perigee altitude
460.957 km
Semi-major axis
6,840.632 km
Eccentricity
0.00022
Inclination
97.3735°
RAAN
153.8267°
Arg. of periapsis
165.8028°
True anomaly
194.32143°
Mean anomaly
194.3278°
Eccentric anomaly
194.32461°
Mean motion
3.83618 °/min
Orbital period
93.84 mins
BSTAR
0.00050311
Loading maneuver chart data...
Computing Atmospheric mass density...
Loading historical data...
Loading historical data...
Loading historical data...
Loading historical data...
Loading historical data...
Loading historical data...
Loading historical data...

Documentation

Showing up to 5 results
|